When you browse on this site, cookies collect data to enhance your experience and personalize the content and advertising you see.
Visit our Privacy Policy to learn more. By continuing to use the site, you agree to this use of cookies and data.
  • în România
  • Lista ţărilor
  • Pe 7 zile
  • Temperatura apei
  • Meteo pe hartă
  • Widget-uri
  • user-avatar
    Intrare

    Meteo pe oră la Konchinka

    Astăzi, 16 Septembrie, Luni

    Timp Temperatura Precipitaţii Vânt Presiune Umiditate
    00:00 +9°C° 0.5 mm 7 m/s 738 mmHg 88%
    01:00 +9°C° 0.2 mm 7 m/s 737 mmHg 88%
    02:00 +9°C° 0.2 mm 7 m/s 736 mmHg 87%
    03:00 +9°C° 0 mm 7 m/s 736 mmHg 85%
    04:00 +9°C° 0.3 mm 7 m/s 735 mmHg 86%
    05:00 +9°C° 0.3 mm 7 m/s 734 mmHg 88%
    06:00 +9°C° 0.3 mm 8 m/s 734 mmHg 89%
    07:00 +9°C° 0.6 mm 8 m/s 733 mmHg 89%
    08:00 +9°C° 0.6 mm 8 m/s 733 mmHg 89%
    09:00 +10°C° 0.6 mm 8 m/s 733 mmHg 88%
    10:00 +11°C° 0.2 mm 9 m/s 733 mmHg 82%
    11:00 +12°C° 0.2 mm 10 m/s 732 mmHg 75%
    12:00 +13°C° 0.2 mm 10 m/s 732 mmHg 69%
    13:00 +13°C° 0.1 mm 10 m/s 732 mmHg 65%
    14:00 +13°C° 0.1 mm 9 m/s 732 mmHg 61%
    15:00 +13°C° 0.1 mm 9 m/s 732 mmHg 58%
    16:00 +13°C° 0 mm 8 m/s 732 mmHg 62%
    17:00 +12°C° 0 mm 7 m/s 732 mmHg 67%
    18:00 +12°C° 0 mm 5 m/s 732 mmHg 71%
    19:00 +11°C° 0 mm 6 m/s 732 mmHg 73%
    20:00 +10°C° 0 mm 6 m/s 732 mmHg 76%
    21:00 +9°C° 0 mm 6 m/s 732 mmHg 79%
    22:00 +9°C° 0 mm 6 m/s 732 mmHg 80%
    23:00 +9°C° 0 mm 6 m/s 732 mmHg 81%

    Mâine, 17 Septembrie, Marţi

    Timp Temperatura Precipitaţii Vânt Presiune Umiditate
    00:00 +8°C° 0 mm 6 m/s 732 mmHg 82%
    01:00 +8°C° 0 mm 6 m/s 732 mmHg 84%
    02:00 +8°C° 0 mm 6 m/s 732 mmHg 85%
    03:00 +7°C° 0 mm 6 m/s 732 mmHg 87%
    04:00 +7°C° 0 mm 6 m/s 732 mmHg 85%
    05:00 +8°C° 0 mm 6 m/s 731 mmHg 83%
    06:00 +8°C° 0 mm 6 m/s 731 mmHg 82%
    07:00 +8°C° 0 mm 7 m/s 731 mmHg 79%
    08:00 +9°C° 0 mm 7 m/s 731 mmHg 76%
    09:00 +9°C° 0 mm 7 m/s 732 mmHg 74%
    10:00 +9°C° 0.1 mm 7 m/s 732 mmHg 72%
    11:00 +10°C° 0.1 mm 7 m/s 732 mmHg 71%
    12:00 +10°C° 0.1 mm 7 m/s 732 mmHg 70%
    13:00 +10°C° 0 mm 7 m/s 732 mmHg 66%
    14:00 +11°C° 0 mm 7 m/s 732 mmHg 62%
    15:00 +12°C° 0 mm 7 m/s 732 mmHg 58%
    16:00 +11°C° 0 mm 6 m/s 732 mmHg 62%
    17:00 +10°C° 0 mm 5 m/s 732 mmHg 67%
    18:00 +10°C° 0 mm 4 m/s 732 mmHg 71%
    19:00 +8°C° 0 mm 4 m/s 732 mmHg 74%
    20:00 +7°C° 0 mm 4 m/s 732 mmHg 77%
    21:00 +7°C° 0 mm 4 m/s 732 mmHg 80%
    22:00 +6°C° 0 mm 4 m/s 732 mmHg 83%
    23:00 +6°C° 0 mm 4 m/s 732 mmHg 86%

    Poimâine, 18 Septembrie, Miercuri

    Timp Temperatura Precipitaţii Vânt Presiune Umiditate
    00:00 +5°C° 0 mm 4 m/s 732 mmHg 89%
    01:00 +5°C° 0 mm 3 m/s 732 mmHg 90%
    02:00 +5°C° 0 mm 3 m/s 732 mmHg 92%
    03:00 +4°C° 0 mm 3 m/s 732 mmHg 93%
    04:00 +4°C° 0 mm 3 m/s 732 mmHg 93%
    05:00 +4°C° 0 mm 3 m/s 731 mmHg 93%
    06:00 +4°C° 0 mm 3 m/s 731 mmHg 92%
    07:00 +5°C° 0 mm 3 m/s 731 mmHg 88%
    08:00 +7°C° 0 mm 3 m/s 731 mmHg 84%
    09:00 +8°C° 0 mm 4 m/s 731 mmHg 80%
    10:00 +10°C° 0.3 mm 4 m/s 731 mmHg 76%
    11:00 +11°C° 0.3 mm 4 m/s 731 mmHg 72%
    12:00 +12°C° 0.3 mm 4 m/s 731 mmHg 68%
    13:00 +12°C° 0.6 mm 4 m/s 731 mmHg 68%
    14:00 +12°C° 0.6 mm 3 m/s 731 mmHg 69%
    15:00 +12°C° 0.6 mm 3 m/s 730 mmHg 70%
    16:00 +11°C° 0.9 mm 3 m/s 730 mmHg 74%
    17:00 +10°C° 0.9 mm 3 m/s 730 mmHg 79%
    18:00 +9°C° 0.9 mm 3 m/s 730 mmHg 83%
    19:00 +9°C° 0.2 mm 3 m/s 730 mmHg 86%
    20:00 +8°C° 0.2 mm 3 m/s 730 mmHg 89%
    21:00 +7°C° 0.2 mm 3 m/s 730 mmHg 92%
    22:00 +7°C° 0 mm 3 m/s 731 mmHg 93%
    23:00 +5°C° 0 mm 3 m/s 731 mmHg 93%

    19 Septembrie, Joi

    Timp Temperatura Precipitaţii Vânt Presiune Umiditate
    00:00 +5°C° 0 mm 3 m/s 731 mmHg 94%
    01:00 +4°C° 0 mm 3 m/s 732 mmHg 94%
    02:00 +4°C° 0 mm 3 m/s 732 mmHg 95%
    03:00 +4°C° 0 mm 4 m/s 733 mmHg 95%
    04:00 +4°C° 0 mm 4 m/s 734 mmHg 95%
    05:00 +4°C° 0 mm 4 m/s 734 mmHg 96%
    06:00 +4°C° 0 mm 4 m/s 735 mmHg 96%
    07:00 +4°C° 0 mm 4 m/s 735 mmHg 95%
    08:00 +5°C° 0 mm 4 m/s 736 mmHg 93%
    09:00 +5°C° 0 mm 4 m/s 737 mmHg 91%
    10:00 +6°C° 0.1 mm 4 m/s 737 mmHg 86%
    11:00 +6°C° 0.1 mm 4 m/s 738 mmHg 82%
    12:00 +7°C° 0.1 mm 4 m/s 738 mmHg 77%
    13:00 +7°C° 0.1 mm 4 m/s 738 mmHg 73%
    14:00 +8°C° 0.1 mm 5 m/s 739 mmHg 69%
    15:00 +8°C° 0.1 mm 5 m/s 739 mmHg 65%
    16:00 +8°C° 0.1 mm 4 m/s 739 mmHg 69%
    17:00 +8°C° 0.1 mm 3 m/s 740 mmHg 73%
    18:00 +7°C° 0.1 mm 3 m/s 740 mmHg 77%
    19:00 +6°C° 0 mm 2 m/s 740 mmHg 80%
    20:00 +5°C° 0 mm 2 m/s 741 mmHg 84%
    21:00 +4°C° 0 mm 2 m/s 741 mmHg 87%
    22:00 +3°C° 0 mm 2 m/s 741 mmHg 86%
    23:00 +3°C° 0 mm 2 m/s 742 mmHg 85%

    20 Septembrie, Vineri

    Timp Temperatura Precipitaţii Vânt Presiune Umiditate
    00:00 +3°C° 0 mm 2 m/s 742 mmHg 84%
    01:00 +2°C° 0 mm 2 m/s 742 mmHg 84%
    02:00 +2°C° 0 mm 2 m/s 742 mmHg 83%
    03:00 +2°C° 0 mm 2 m/s 742 mmHg 83%
    04:00 +2°C° 0 mm 2 m/s 742 mmHg 85%
    05:00 +1°C° 0 mm 2 m/s 742 mmHg 87%
    06:00 +1°C° 0 mm 2 m/s 742 mmHg 88%
    07:00 +2°C° 0 mm 2 m/s 742 mmHg 82%
    08:00 +4°C° 0 mm 2 m/s 742 mmHg 76%
    09:00 +5°C° 0 mm 2 m/s 743 mmHg 70%
    10:00 +5°C° 0.1 mm 3 m/s 743 mmHg 68%
    11:00 +7°C° 0.1 mm 3 m/s 743 mmHg 65%
    12:00 +8°C° 0.1 mm 3 m/s 743 mmHg 62%
    13:00 +8°C° 0.3 mm 3 m/s 743 mmHg 64%
    14:00 +7°C° 0.3 mm 4 m/s 743 mmHg 66%
    15:00 +7°C° 0.3 mm 4 m/s 743 mmHg 69%
    16:00 +7°C° 0 mm 3 m/s 743 mmHg 70%
    17:00 +6°C° 0 mm 2 m/s 743 mmHg 71%
    18:00 +6°C° 0 mm 2 m/s 743 mmHg 72%
    19:00 +5°C° 0 mm 2 m/s 743 mmHg 75%
    20:00 +4°C° 0 mm 2 m/s 743 mmHg 78%
    21:00 +2°C° 0 mm 2 m/s 744 mmHg 81%
    22:00 +2°C° 0 mm 2 m/s 744 mmHg 84%
    23:00 +2°C° 0 mm 2 m/s 744 mmHg 87%

    21 Septembrie, Sâmbătă

    Timp Temperatura Precipitaţii Vânt Presiune Umiditate
    00:00 +1°C° 0 mm 2 m/s 744 mmHg 90%
    01:00 +1°C° 0 mm 2 m/s 744 mmHg 90%
    02:00 +1°C° 0 mm 2 m/s 744 mmHg 91%
    03:00 -1°C° 0 mm 2 m/s 744 mmHg 91%
    04:00 -1°C° 0 mm 2 m/s 745 mmHg 91%
    05:00 -1°C° 0 mm 2 m/s 745 mmHg 91%
    06:00 -2°C° 0 mm 2 m/s 745 mmHg 91%
    07:00 +1°C° 0 mm 2 m/s 745 mmHg 85%
    08:00 +2°C° 0 mm 2 m/s 746 mmHg 79%
    09:00 +3°C° 0 mm 3 m/s 746 mmHg 73%
    10:00 +4°C° 0 mm 3 m/s 746 mmHg 67%
    11:00 +5°C° 0 mm 3 m/s 746 mmHg 62%
    12:00 +8°C° 0 mm 3 m/s 746 mmHg 56%
    13:00 +7°C° 0.2 mm 4 m/s 746 mmHg 56%
    14:00 +7°C° 0.2 mm 4 m/s 746 mmHg 56%
    15:00 +7°C° 0.2 mm 4 m/s 746 mmHg 56%
    16:00 +6°C° 0 mm 4 m/s 746 mmHg 60%
    17:00 +5°C° 0 mm 3 m/s 746 mmHg 64%
    18:00 +5°C° 0 mm 2 m/s 746 mmHg 68%
    19:00 +4°C° 0 mm 2 m/s 747 mmHg 70%
    20:00 +3°C° 0 mm 2 m/s 747 mmHg 72%
    21:00 +2°C° 0 mm 2 m/s 747 mmHg 75%
    22:00 +2°C° 0 mm 2 m/s 747 mmHg 76%
    23:00 +2°C° 0 mm 2 m/s 748 mmHg 77%
    Arată mai mult